User: anonymous   Login
Location: Caltech
(34.1382°N, 118.1253°W)
Time: 19:39:57
(UTC-08:00)
Language:

ALOS - Orbit

View from above orbital plane
View from above orbital plane
View from above satellite
View from above satellite

Ground track
Ground track

The orbit data is extracted from the following two-line orbital elements,

1 28931U 06002A   14356.87628681  .00001603  00000-0  33180-3 0  1389
2 28931 097.9599 048.1291 0000559 042.1633 317.9611 14.61559276474881
Epoch (UTC): 22 December 2014 21:01:51
Eccentricity: 0.0000559
inclination: 97.9599°
perigee height: 688 km
apogee height: 688 km
right ascension of ascending node: 48.1291°
argument of perigee: 42.1633°
revolutions per day: 14.61559276
mean anomaly at epoch: 317.9611°
orbit number at epoch: 47488

The dashed part of the orbit path shows where the satellite is in the earth's shadow,  

DLR